EXS61J EGPH-EGCC

Flight info

Callsign EXS61J
Flight time 0h 41m
Altitude 24000
Route EGPH/06 N0352F240 GOSA1D GOSAM P600 FENIK/N0359F250 L612 BEBNI/N0347F230 L612 LAKEY LAKE1M EGCC/05R
Aircraft A320/M-V/N

Departure

Time 2026-04-20 18:11
Airport Edinburgh Airport (EGPH)

Arrival

Time 2026-04-20 18:53
Airport Manchester Airport (EGCC)
Time Latitude Longitude Altitude Speed Heading
2026-04-20 17:43 55.94832 -3.35808 116 ft 0 kts 208°
2026-04-20 17:58 55.94839 -3.35802 116 ft 1 kts 213°
2026-04-20 17:59 55.94844 -3.35795 112 ft 1 kts 217°
2026-04-20 17:59 55.94850 -3.35787 111 ft 1 kts 223°
2026-04-20 17:59 55.94856 -3.35778 113 ft 1 kts 229°
2026-04-20 17:59 55.94861 -3.35767 114 ft 1 kts 234°
2026-04-20 18:00 55.94866 -3.35756 114 ft 1 kts 240°
2026-04-20 18:00 55.94869 -3.35744 111 ft 1 kts 246°
2026-04-20 18:00 55.94872 -3.35732 111 ft 1 kts 252°
2026-04-20 18:00 55.94875 -3.35718 111 ft 1 kts 261°
2026-04-20 18:01 55.94876 -3.35705 116 ft 1 kts 271°
2026-04-20 18:01 55.94875 -3.35691 116 ft 1 kts 285°
2026-04-20 18:01 55.94873 -3.35680 111 ft 0 kts 297°
2026-04-20 18:03 55.94879 -3.35701 116 ft 9 kts 298°
2026-04-20 18:03 55.94916 -3.35813 114 ft 8 kts 308°
2026-04-20 18:03 55.94978 -3.35857 115 ft 12 kts
2026-04-20 18:03 55.95045 -3.35803 115 ft 8 kts 27°
2026-04-20 18:04 55.95103 -3.35825 115 ft 11 kts 319°
2026-04-20 18:04 55.95163 -3.35937 113 ft 14 kts 328°
2026-04-20 18:04 55.95207 -3.36044 115 ft 11 kts 250°
2026-04-20 18:04 55.95166 -3.36189 113 ft 15 kts 239°
2026-04-20 18:05 55.95029 -3.36593 112 ft 22 kts 238°
2026-04-20 18:05 55.94943 -3.36843 115 ft 25 kts 238°
2026-04-20 18:05 55.94847 -3.37131 113 ft 28 kts 239°
2026-04-20 18:06 55.94749 -3.37422 115 ft 26 kts 239°
2026-04-20 18:06 55.94650 -3.37714 116 ft 29 kts 239°
2026-04-20 18:06 55.94610 -3.37834 115 ft 10 kts 237°
2026-04-20 18:06 55.94564 -3.37960 116 ft 14 kts 238°
2026-04-20 18:07 55.94506 -3.38134 115 ft 18 kts 239°
2026-04-20 18:07 55.94434 -3.38343 115 ft 22 kts 238°
2026-04-20 18:07 55.94361 -3.38555 114 ft 18 kts 237°
2026-04-20 18:07 55.94300 -3.38737 113 ft 12 kts 240°
2026-04-20 18:08 55.94301 -3.38882 114 ft 8 kts 314°
2026-04-20 18:08 55.94317 -3.38903 115 ft 2 kts 327°
2026-04-20 18:08 55.94318 -3.38905 115 ft 0 kts 327°
2026-04-20 18:09 55.94320 -3.38907 115 ft 2 kts 327°
2026-04-20 18:09 55.94378 -3.38960 111 ft 16 kts 345°
2026-04-20 18:09 55.94460 -3.38844 112 ft 13 kts 59°
2026-04-20 18:10 55.94478 -3.38789 113 ft 6 kts 59°
2026-04-20 18:10 55.94484 -3.38770 111 ft 0 kts 60°
2026-04-20 18:11 55.94522 -3.38656 111 ft 45 kts 59°
2026-04-20 18:11 55.94843 -3.37712 113 ft 128 kts 59°
2026-04-20 18:11 55.95317 -3.36203 762 ft 143 kts 62°
2026-04-20 18:11 55.95797 -3.34584 1643 ft 152 kts 64°
2026-04-20 18:12 55.96467 -3.33084 2530 ft 163 kts 45°
2026-04-20 18:12 55.97398 -3.31706 3180 ft 183 kts 41°
2026-04-20 18:12 55.98450 -3.30184 3729 ft 208 kts 42°
2026-04-20 18:12 55.99624 -3.28436 4414 ft 230 kts 37°
2026-04-20 18:13 56.01181 -3.27347 5108 ft 254 kts
2026-04-20 18:13 56.02975 -3.27749 5741 ft 267 kts 341°
2026-04-20 18:13 56.04535 -3.29586 5950 ft 273 kts 314°
2026-04-20 18:13 56.05473 -3.32488 5996 ft 277 kts 286°
2026-04-20 18:14 56.05583 -3.35915 5997 ft 277 kts 258°
2026-04-20 18:14 56.04811 -3.39030 6003 ft 275 kts 231°
2026-04-20 18:14 56.03603 -3.41684 5991 ft 277 kts 238°
2026-04-20 18:14 56.02777 -3.44816 6067 ft 279 kts 246°
2026-04-20 18:15 56.02044 -3.48046 6644 ft 281 kts 248°
2026-04-20 18:15 56.01330 -3.51241 7729 ft 280 kts 247°
2026-04-20 18:15 56.00593 -3.54497 8757 ft 285 kts 246°
2026-04-20 18:15 55.99630 -3.57603 9794 ft 286 kts 226°
2026-04-20 18:16 55.98060 -3.59763 10752 ft 288 kts 208°
2026-04-20 18:16 55.96270 -3.61573 11225 ft 311 kts 206°
2026-04-20 18:16 55.94299 -3.63493 11666 ft 332 kts 206°
2026-04-20 18:16 55.92236 -3.65508 12488 ft 339 kts 206°
2026-04-20 18:17 55.90183 -3.67537 13418 ft 343 kts 206°
2026-04-20 18:17 55.88082 -3.69625 14288 ft 348 kts 207°
2026-04-20 18:17 55.85955 -3.71746 15096 ft 352 kts 206°
2026-04-20 18:17 55.83800 -3.73894 15919 ft 355 kts 207°
2026-04-20 18:18 55.81624 -3.76060 16719 ft 359 kts 206°
2026-04-20 18:18 55.79419 -3.78250 17499 ft 364 kts 207°
2026-04-20 18:18 55.77227 -3.80426 18273 ft 367 kts 207°
2026-04-20 18:18 55.74975 -3.82658 19004 ft 371 kts 207°
2026-04-20 18:19 55.72702 -3.84908 19703 ft 374 kts 207°
2026-04-20 18:19 55.70418 -3.87164 20401 ft 377 kts 207°
2026-04-20 18:19 55.68118 -3.89432 21095 ft 380 kts 207°
2026-04-20 18:19 55.65827 -3.91687 21767 ft 382 kts 207°
2026-04-20 18:20 55.63488 -3.93988 22443 ft 386 kts 207°
2026-04-20 18:20 55.61122 -3.96313 23116 ft 389 kts 207°
2026-04-20 18:20 55.58736 -3.98654 23792 ft 392 kts 207°
2026-04-20 18:20 55.56363 -4.00978 24187 ft 397 kts 208°
2026-04-20 18:21 55.53933 -4.03326 24312 ft 398 kts 205°
2026-04-20 18:21 55.51324 -4.04880 24335 ft 395 kts 189°
2026-04-20 18:21 55.48581 -4.05105 24333 ft 396 kts 174°
2026-04-20 18:21 55.45897 -4.03985 24335 ft 399 kts 159°
2026-04-20 18:22 55.43412 -4.01753 24333 ft 400 kts 152°
2026-04-20 18:22 55.40966 -3.99361 24330 ft 401 kts 152°
2026-04-20 18:22 55.38558 -3.97010 24327 ft 402 kts 152°
2026-04-20 18:22 55.36110 -3.94633 24326 ft 402 kts 152°
2026-04-20 18:23 55.33648 -3.92254 24326 ft 402 kts 152°
2026-04-20 18:23 55.31191 -3.89888 24325 ft 402 kts 152°
2026-04-20 18:23 55.28754 -3.87545 24327 ft 403 kts 152°
2026-04-20 18:23 55.26282 -3.85174 24323 ft 404 kts 152°
2026-04-20 18:24 55.23807 -3.82802 24327 ft 404 kts 152°
2026-04-20 18:24 55.21356 -3.80455 24326 ft 405 kts 152°
2026-04-20 18:24 55.18876 -3.78085 24319 ft 406 kts 152°
2026-04-20 18:24 55.16387 -3.75708 24324 ft 406 kts 152°
2026-04-20 18:25 55.13899 -3.73336 24317 ft 406 kts 152°
2026-04-20 18:25 55.11443 -3.70998 24322 ft 407 kts 152°
2026-04-20 18:25 55.08946 -3.68623 24323 ft 408 kts 152°
2026-04-20 18:25 55.06453 -3.66257 24319 ft 408 kts 152°
2026-04-20 18:26 55.03952 -3.63885 24324 ft 409 kts 152°
2026-04-20 18:26 55.01479 -3.61544 24321 ft 409 kts 152°
2026-04-20 18:26 54.98980 -3.59181 24315 ft 409 kts 152°
2026-04-20 18:26 54.96468 -3.56810 24324 ft 410 kts 152°
2026-04-20 18:27 54.93958 -3.54445 24319 ft 410 kts 152°
2026-04-20 18:27 54.91436 -3.52071 24323 ft 412 kts 152°
2026-04-20 18:27 54.88928 -3.49714 24316 ft 412 kts 152°
2026-04-20 18:27 54.86394 -3.47335 24316 ft 413 kts 152°
2026-04-20 18:28 54.83865 -3.44965 24320 ft 413 kts 152°
2026-04-20 18:28 54.81331 -3.42592 24322 ft 414 kts 152°
2026-04-20 18:28 54.78798 -3.40224 24316 ft 412 kts 152°
2026-04-20 18:28 54.76300 -3.37893 24325 ft 413 kts 152°
2026-04-20 18:29 54.73760 -3.35525 24322 ft 413 kts 152°
2026-04-20 18:29 54.71184 -3.33284 24327 ft 413 kts 157°
2026-04-20 18:29 54.68545 -3.31311 24326 ft 413 kts 157°
2026-04-20 18:29 54.65908 -3.29338 24263 ft 414 kts 157°
2026-04-20 18:30 54.63258 -3.27352 24025 ft 413 kts 157°
2026-04-20 18:30 54.60664 -3.25409 23769 ft 410 kts 157°
2026-04-20 18:30 54.58045 -3.23447 23482 ft 408 kts 157°
2026-04-20 18:30 54.55441 -3.21500 23191 ft 407 kts 157°
2026-04-20 18:31 54.52842 -3.19560 22917 ft 406 kts 157°
2026-04-20 18:31 54.50260 -3.17636 22634 ft 404 kts 157°
2026-04-20 18:31 54.47681 -3.15717 22357 ft 402 kts 157°
2026-04-20 18:31 54.45122 -3.13814 22092 ft 400 kts 157°
2026-04-20 18:32 54.42600 -3.11942 21825 ft 399 kts 157°
2026-04-20 18:32 54.40042 -3.10046 21554 ft 397 kts 157°
2026-04-20 18:32 54.37500 -3.08165 21284 ft 395 kts 157°
2026-04-20 18:32 54.35010 -3.06324 21026 ft 393 kts 157°
2026-04-20 18:33 54.32493 -3.04466 20764 ft 391 kts 157°
2026-04-20 18:33 54.29999 -3.02627 20504 ft 389 kts 156°
2026-04-20 18:33 54.27511 -3.00795 20295 ft 387 kts 156°
2026-04-20 18:33 54.25059 -2.98987 20118 ft 379 kts 155°
2026-04-20 18:34 54.22764 -2.96935 19498 ft 376 kts 147°
2026-04-20 18:34 54.20592 -2.94487 18983 ft 364 kts 146°
2026-04-20 18:34 54.18527 -2.92136 18638 ft 349 kts 146°
2026-04-20 18:34 54.16498 -2.89835 17782 ft 349 kts 146°
2026-04-20 18:35 54.14456 -2.87532 17452 ft 359 kts 146°
2026-04-20 18:35 54.12382 -2.85204 17329 ft 349 kts 146°
2026-04-20 18:35 54.10402 -2.82988 17323 ft 331 kts 146°
2026-04-20 18:35 54.08519 -2.80884 17318 ft 315 kts 146°
2026-04-20 18:36 54.07307 -2.79532 17319 ft 316 kts 146°
2026-04-20 18:36 54.04836 -2.76773 17318 ft 321 kts 146°
2026-04-20 18:36 54.02970 -2.74692 17217 ft 320 kts 146°
2026-04-20 18:36 54.01728 -2.73310 16952 ft 321 kts 146°
2026-04-20 18:37 53.99840 -2.71210 16342 ft 326 kts 146°
2026-04-20 18:37 53.97921 -2.69076 15683 ft 332 kts 146°
2026-04-20 18:37 53.96005 -2.66949 15406 ft 324 kts 146°
2026-04-20 18:37 53.93573 -2.64257 15307 ft 305 kts 146°
2026-04-20 18:38 53.92412 -2.62974 15304 ft 294 kts 146°
2026-04-20 18:38 53.90737 -2.61123 15305 ft 281 kts 146°
2026-04-20 18:38 53.89072 -2.59281 15300 ft 288 kts 146°
2026-04-20 18:38 53.87390 -2.57422 15221 ft 288 kts 146°
2026-04-20 18:39 53.85728 -2.55588 14725 ft 290 kts 146°
2026-04-20 18:39 53.84013 -2.53695 13866 ft 299 kts 146°
2026-04-20 18:39 53.82238 -2.51740 13084 ft 302 kts 146°
2026-04-20 18:39 53.80485 -2.49814 12333 ft 303 kts 146°
2026-04-20 18:40 53.78685 -2.47836 11292 ft 313 kts 146°
2026-04-20 18:40 53.76826 -2.45796 10134 ft 325 kts 146°
2026-04-20 18:40 53.74929 -2.43715 9209 ft 327 kts 146°
2026-04-20 18:40 53.73074 -2.41686 8948 ft 307 kts 146°
2026-04-20 18:41 53.71338 -2.39791 8759 ft 288 kts 146°
2026-04-20 18:41 53.69709 -2.38012 8583 ft 269 kts 146°
2026-04-20 18:41 53.68180 -2.36349 8391 ft 254 kts 148°
2026-04-20 18:41 53.66529 -2.35414 8335 ft 260 kts 175°
2026-04-20 18:42 53.64738 -2.35801 8325 ft 260 kts 193°
2026-04-20 18:42 53.63010 -2.36639 8319 ft 258 kts 201°
2026-04-20 18:42 53.61439 -2.38031 8318 ft 259 kts 210°
2026-04-20 18:42 53.59884 -2.39562 8321 ft 259 kts 210°
2026-04-20 18:43 53.58330 -2.41097 8322 ft 259 kts 210°
2026-04-20 18:43 53.56774 -2.42633 8319 ft 259 kts 210°
2026-04-20 18:43 53.55231 -2.44159 8315 ft 251 kts 210°
2026-04-20 18:43 53.53746 -2.45625 8319 ft 246 kts 210°
2026-04-20 18:44 53.52273 -2.47078 8314 ft 248 kts 210°
2026-04-20 18:44 53.50783 -2.48551 8317 ft 248 kts 210°
2026-04-20 18:44 53.49295 -2.50019 8316 ft 248 kts 210°
2026-04-20 18:44 53.47811 -2.51485 8280 ft 246 kts 210°
2026-04-20 18:45 53.46333 -2.52947 8003 ft 248 kts 210°
2026-04-20 18:45 53.44838 -2.54429 7546 ft 253 kts 210°
2026-04-20 18:45 53.43301 -2.55961 7043 ft 259 kts 210°
2026-04-20 18:45 53.41744 -2.57474 6543 ft 263 kts 204°
2026-04-20 18:46 53.40005 -2.58270 6232 ft 256 kts 190°
2026-04-20 18:46 53.38267 -2.58837 5949 ft 252 kts 189°
2026-04-20 18:46 53.36560 -2.59404 5621 ft 246 kts 189°
2026-04-20 18:46 53.34908 -2.59964 5357 ft 240 kts 190°
2026-04-20 18:47 53.33248 -2.60523 5080 ft 243 kts 186°
2026-04-20 18:47 53.31621 -2.60251 4774 ft 233 kts 155°
2026-04-20 18:47 53.30174 -2.59025 4493 ft 234 kts 150°
2026-04-20 18:47 53.28750 -2.57743 4221 ft 235 kts 150°
2026-04-20 18:48 53.27311 -2.56452 3938 ft 233 kts 150°
2026-04-20 18:48 53.25886 -2.55175 3644 ft 229 kts 150°
2026-04-20 18:48 53.24552 -2.53826 3359 ft 218 kts 134°
2026-04-20 18:48 53.23813 -2.51752 3093 ft 208 kts 101°
2026-04-20 18:49 53.23879 -2.49421 2988 ft 196 kts 75°
2026-04-20 18:49 53.24632 -2.47637 2932 ft 188 kts 43°
2026-04-20 18:49 53.25636 -2.46210 2650 ft 188 kts 45°
2026-04-20 18:49 53.26520 -2.44733 2415 ft 172 kts 50°
2026-04-20 18:50 53.27267 -2.43299 2156 ft 158 kts 54°
2026-04-20 18:50 53.27946 -2.41897 1937 ft 155 kts 54°
2026-04-20 18:50 53.28626 -2.40495 1718 ft 153 kts 53°
2026-04-20 18:50 53.29300 -2.39103 1519 ft 153 kts 54°
2026-04-20 18:51 53.29946 -2.37764 1292 ft 143 kts 54°
2026-04-20 18:51 53.30559 -2.36501 1076 ft 136 kts 54°
2026-04-20 18:51 53.31143 -2.35298 875 ft 133 kts 54°
2026-04-20 18:51 53.31734 -2.34064 670 ft 138 kts 54°
2026-04-20 18:52 53.32330 -2.32862 474 ft 129 kts 53°
2026-04-20 18:52 53.32874 -2.31718 328 ft 127 kts 53°
2026-04-20 18:52 53.33415 -2.30608 199 ft 119 kts 56°
2026-04-20 18:52 53.33850 -2.29706 217 ft 87 kts 51°
2026-04-20 18:53 53.34191 -2.28989 218 ft 59 kts 51°
2026-04-20 18:53 53.34431 -2.28598 222 ft 30 kts 28°
2026-04-20 18:53 53.34572 -2.28496 225 ft 21 kts 22°
2026-04-20 18:53 53.34695 -2.28406 228 ft 19 kts 32°
2026-04-20 18:54 53.34786 -2.28247 230 ft 19 kts 53°
2026-04-20 18:54 53.34868 -2.28073 233 ft 19 kts 49°
2026-04-20 18:54 53.34946 -2.27912 237 ft 18 kts 52°
2026-04-20 18:54 53.35021 -2.27761 237 ft 17 kts 49°
2026-04-20 18:55 53.35096 -2.27609 239 ft 17 kts 51°
2026-04-20 18:55 53.35170 -2.27452 242 ft 17 kts 52°
2026-04-20 18:55 53.35215 -2.27356 243 ft 0 kts 51°